Hourly Weather Barlogi

Today, 6 May, Thursday

Time Temperature Precipitation Wind Pressure Humidity
00:00 +3°C° 0 mm 7 mps 748 mmHg 75%
01:00 +3°C° 0 mm 6 mps 748 mmHg 76%
02:00 +3°C° 0 mm 6 mps 749 mmHg 78%
03:00 +2°C° 0 mm 6 mps 749 mmHg 79%
04:00 +2°C° 0 mm 6 mps 749 mmHg 80%
05:00 +3°C° 0 mm 6 mps 749 mmHg 75%
06:00 +4°C° 0 mm 6 mps 749 mmHg 70%
07:00 +4°C° 0 mm 6 mps 749 mmHg 65%
08:00 +5°C° 0.1 mm 6 mps 749 mmHg 62%
09:00 +8°C° 0.1 mm 6 mps 749 mmHg 59%
10:00 +9°C° 0.1 mm 6 mps 749 mmHg 56%
11:00 +9°C° 0.2 mm 6 mps 749 mmHg 56%
12:00 +9°C° 0.2 mm 7 mps 749 mmHg 56%
13:00 +10°C° 0.2 mm 7 mps 748 mmHg 56%
14:00 +10°C° 0.2 mm 6 mps 748 mmHg 55%
15:00 +10°C° 0.2 mm 5 mps 748 mmHg 54%
16:00 +10°C° 0.2 mm 5 mps 748 mmHg 53%
17:00 +10°C° 0 mm 4 mps 748 mmHg 57%
18:00 +9°C° 0 mm 3 mps 748 mmHg 61%
19:00 +9°C° 0 mm 1 mps 748 mmHg 65%
20:00 +8°C° 0 mm 1 mps 748 mmHg 68%
21:00 +8°C° 0 mm 1 mps 747 mmHg 71%
22:00 +7°C° 0 mm 1 mps 747 mmHg 75%
23:00 +6°C° 0.2 mm 2 mps 747 mmHg 78%

Tomorrow, 7 May, Friday

Time Temperature Precipitation Wind Pressure Humidity
00:00 +6°C° 0.2 mm 2 mps 747 mmHg 82%
01:00 +6°C° 0.2 mm 2 mps 746 mmHg 86%
02:00 +6°C° 1 mm 2 mps 746 mmHg 89%
03:00 +6°C° 1 mm 2 mps 745 mmHg 92%
04:00 +6°C° 1 mm 2 mps 745 mmHg 96%
05:00 +6°C° 0.7 mm 2 mps 745 mmHg 96%
06:00 +6°C° 0.7 mm 2 mps 745 mmHg 96%
07:00 +5°C° 0.7 mm 3 mps 745 mmHg 96%
08:00 +4°C° 0.7 mm 3 mps 746 mmHg 96%
09:00 +4°C° 0.7 mm 3 mps 747 mmHg 96%
10:00 +3°C° 0.7 mm 4 mps 748 mmHg 97%
11:00 +3°C° 1.2 mm 4 mps 748 mmHg 96%
12:00 +3°C° 1.2 mm 4 mps 749 mmHg 96%
13:00 +3°C° 1.2 mm 4 mps 750 mmHg 96%
14:00 +3°C° 1.2 mm 4 mps 751 mmHg 97%
15:00 +1°C° 1.2 mm 4 mps 751 mmHg 97%
16:00 +1°C° 1.2 mm 4 mps 752 mmHg 97%
17:00 +1°C° 0.5 mm 4 mps 753 mmHg 96%
18:00 +3°C° 0.5 mm 4 mps 753 mmHg 95%
19:00 +3°C° 0.5 mm 4 mps 754 mmHg 94%
20:00 +3°C° 0 mm 4 mps 754 mmHg 94%
21:00 +1°C° 0 mm 4 mps 754 mmHg 95%
22:00 +1°C° 0 mm 4 mps 755 mmHg 95%
23:00 +1°C° 0 mm 4 mps 755 mmHg 95%

Day after tomorrow, 8 May, Saturday

Time Temperature Precipitation Wind Pressure Humidity
00:00 +1°C° 0 mm 3 mps 755 mmHg 95%
01:00 +1°C° 0 mm 3 mps 756 mmHg 96%
02:00 +1°C° 0 mm 3 mps 756 mmHg 96%
03:00 +1°C° 0 mm 3 mps 756 mmHg 96%
04:00 0°C° 0 mm 3 mps 757 mmHg 96%
05:00 +2°C° 0 mm 3 mps 757 mmHg 93%
06:00 +3°C° 0 mm 4 mps 757 mmHg 90%
07:00 +4°C° 0 mm 4 mps 758 mmHg 87%
08:00 +6°C° 0 mm 4 mps 758 mmHg 77%
09:00 +7°C° 0 mm 4 mps 758 mmHg 66%
10:00 +9°C° 0 mm 5 mps 758 mmHg 56%
11:00 +10°C° 0 mm 5 mps 757 mmHg 50%
12:00 +12°C° 0 mm 4 mps 757 mmHg 44%
13:00 +13°C° 0 mm 4 mps 757 mmHg 38%
14:00 +13°C° 0 mm 4 mps 757 mmHg 37%
15:00 +14°C° 0 mm 3 mps 757 mmHg 36%
16:00 +14°C° 0 mm 3 mps 757 mmHg 35%
17:00 +13°C° 0 mm 2 mps 757 mmHg 42%
18:00 +12°C° 0 mm 1 mps 756 mmHg 50%
19:00 +10°C° 0 mm 1 mps 756 mmHg 57%
20:00 +9°C° 0 mm 1 mps 756 mmHg 59%
21:00 +7°C° 0 mm 2 mps 756 mmHg 62%
22:00 +6°C° 0 mm 2 mps 756 mmHg 65%
23:00 +5°C° 0 mm 3 mps 756 mmHg 68%

9 May, Sunday

Time Temperature Precipitation Wind Pressure Humidity
00:00 +5°C° 0 mm 3 mps 756 mmHg 71%
01:00 +5°C° 0 mm 3 mps 755 mmHg 74%
02:00 +5°C° 0 mm 3 mps 755 mmHg 72%
03:00 +5°C° 0 mm 3 mps 754 mmHg 70%
04:00 +5°C° 0 mm 4 mps 754 mmHg 69%
05:00 +7°C° 0 mm 4 mps 754 mmHg 67%
06:00 +8°C° 0 mm 4 mps 754 mmHg 65%
07:00 +11°C° 0 mm 4 mps 753 mmHg 63%
08:00 +13°C° 0 mm 4 mps 753 mmHg 57%
09:00 +17°C° 0 mm 4 mps 753 mmHg 52%
10:00 +20°C° 0 mm 4 mps 753 mmHg 47%
11:00 +20°C° 0 mm 5 mps 753 mmHg 46%
12:00 +21°C° 0 mm 5 mps 753 mmHg 45%
13:00 +22°C° 0 mm 5 mps 752 mmHg 44%
14:00 +23°C° 0 mm 5 mps 752 mmHg 46%
15:00 +23°C° 0 mm 5 mps 752 mmHg 48%
16:00 +23°C° 0 mm 4 mps 752 mmHg 50%
17:00 +21°C° 0 mm 4 mps 751 mmHg 57%
18:00 +19°C° 0 mm 4 mps 751 mmHg 63%
19:00 +17°C° 0 mm 3 mps 751 mmHg 70%
20:00 +16°C° 0 mm 3 mps 751 mmHg 71%
21:00 +14°C° 0 mm 3 mps 751 mmHg 73%
22:00 +12°C° 0 mm 3 mps 751 mmHg 75%
23:00 +12°C° 0 mm 3 mps 751 mmHg 76%

10 May, Monday

Time Temperature Precipitation Wind Pressure Humidity
00:00 +11°C° 0 mm 3 mps 751 mmHg 77%
01:00 +10°C° 0 mm 3 mps 751 mmHg 79%
02:00 +10°C° 0 mm 3 mps 751 mmHg 79%
03:00 +10°C° 0 mm 3 mps 751 mmHg 80%
04:00 +9°C° 0 mm 3 mps 751 mmHg 81%
05:00 +11°C° 0 mm 3 mps 751 mmHg 76%
06:00 +12°C° 0 mm 3 mps 751 mmHg 71%
07:00 +14°C° 0 mm 3 mps 751 mmHg 65%
08:00 +17°C° 0 mm 3 mps 751 mmHg 61%
09:00 +18°C° 0 mm 3 mps 751 mmHg 56%
10:00 +20°C° 0 mm 3 mps 751 mmHg 52%
11:00 +21°C° 0 mm 3 mps 751 mmHg 49%
12:00 +24°C° 0 mm 3 mps 751 mmHg 46%
13:00 +25°C° 0 mm 3 mps 751 mmHg 44%
14:00 +25°C° 0 mm 3 mps 751 mmHg 44%
15:00 +26°C° 0 mm 2 mps 750 mmHg 44%
16:00 +26°C° 0 mm 2 mps 750 mmHg 44%
17:00 +24°C° 0 mm 2 mps 750 mmHg 54%
18:00 +21°C° 0 mm 2 mps 750 mmHg 63%
19:00 +19°C° 0 mm 2 mps 750 mmHg 72%
20:00 +18°C° 0 mm 2 mps 749 mmHg 78%
21:00 +17°C° 0 mm 2 mps 749 mmHg 83%
22:00 +16°C° 0 mm 2 mps 749 mmHg 89%
23:00 +15°C° 0 mm 2 mps 748 mmHg 90%

11 May, Tuesday

Time Temperature Precipitation Wind Pressure Humidity
00:00 +15°C° 0 mm 2 mps 748 mmHg 92%
01:00 +13°C° 0 mm 3 mps 747 mmHg 93%
02:00 +14°C° 0 mm 2 mps 747 mmHg 93%
03:00 +14°C° 0 mm 2 mps 747 mmHg 94%
04:00 +13°C° 0 mm 2 mps 747 mmHg 94%
05:00 +14°C° 0 mm 3 mps 747 mmHg 88%
06:00 +16°C° 0 mm 3 mps 747 mmHg 83%
07:00 +18°C° 0 mm 4 mps 748 mmHg 77%
08:00 +18°C° 0 mm 4 mps 748 mmHg 76%
09:00 +19°C° 0 mm 4 mps 748 mmHg 74%
10:00 +19°C° 0 mm 5 mps 749 mmHg 73%
11:00 +21°C° 0 mm 4 mps 749 mmHg 66%
12:00 +22°C° 0 mm 3 mps 748 mmHg 59%
13:00 +24°C° 0 mm 2 mps 748 mmHg 52%
14:00 +24°C° 0 mm 2 mps 748 mmHg 53%
15:00 +24°C° 0 mm 1 mps 748 mmHg 54%
16:00 +24°C° 0 mm 1 mps 748 mmHg 55%
17:00 +23°C° 0 mm 1 mps 747 mmHg 62%
18:00 +21°C° 0 mm 2 mps 747 mmHg 70%
19:00 +19°C° 0 mm 2 mps 747 mmHg 78%
20:00 +18°C° 0.7 mm 2 mps 746 mmHg 83%
21:00 +17°C° 0.7 mm 2 mps 746 mmHg 89%
22:00 +16°C° 0.7 mm 3 mps 746 mmHg 95%
23:00 +16°C° 0.1 mm 3 mps 746 mmHg 96%
Show more